| time (UTC) | temp F | wind direction | speed knots | gust knots | rain 1hr in | rain 24hr in | rain mn in | humidity % | barometer mb |
| 20260504185732 | 57 | 1 | 2.6 | 4.3 | 0.00 | 0.13 | 0.00 | 57 | 1014.2 |
| 20260504184232 | 57 | 336 | 4.3 | 8.7 | 0.00 | 0.13 | 0.00 | 57 | 1014.1 |
| 20260504182731 | 58 | 354 | 5.2 | 7.8 | 0.00 | 0.14 | 0.00 | 56 | 1013.8 |
| 20260504181232 | 58 | 3 | 4.3 | 6.1 | 0.00 | 0.15 | 0.00 | 57 | 1013.4 |
| 20260504175733 | 58 | 341 | 6.1 | 10.4 | 0.00 | 0.17 | 0.00 | 57 | 1012.9 |
| 20260504174231 | 58 | 345 | 5.2 | 8.7 | 0.00 | 0.17 | 0.00 | 58 | 1012.5 |
| 20260504172732 | 58 | 6 | 5.2 | 7.0 | 0.00 | 0.17 | 0.00 | 57 | 1012.2 |
| 20260504171232 | 58 | 4 | 6.1 | 10.4 | 0.00 | 0.17 | 0.00 | 57 | 1011.7 |
| 20260504141232 | 64 | 16 | 4.3 | 7.0 | 0.00 | 0.19 | 0.19 | 57 | 1007.3 |
| 20260504081232 | 76 | 206 | 6.1 | 12.2 | 0.00 | 0.19 | 0.19 | 47 | 996.1 |
| 20260504045731 | 80 | 207 | 10.4 | 17.4 | 0.00 | 0.19 | 0.19 | 61 | 993.4 |
| 20260504044232 | 81 | 211 | 11.3 | 22.6 | 0.00 | 0.19 | 0.19 | 61 | 993.4 |
| 20260504042732 | 81 | 202 | 8.7 | 20.0 | 0.00 | 0.19 | 0.19 | 60 | 993.5 |
| 20260504041231 | 81 | 208 | 13.0 | 20.0 | 0.00 | 0.19 | 0.19 | 60 | 993.6 |
| 20260504035732 | 82 | 212 | 8.7 | 20.0 | 0.00 | 0.19 | 0.19 | 62 | 993.7 |
| 20260504034233 | 81 | 205 | 11.3 | 15.6 | 0.00 | 0.19 | 0.19 | 61 | 994.0 |
| 20260504032731 | 81 | 198 | 10.4 | 15.6 | 0.00 | 0.19 | 0.19 | 61 | 993.9 |
| 20260504031232 | 83 | 203 | 7.8 | 15.6 | 0.00 | 0.19 | 0.19 | 61 | 994.5 |
| 20260504025732 | 83 | 196 | 8.7 | 15.6 | 0.00 | 0.19 | 0.19 | 63 | 994.9 |
| 20260504024231 | 82 | 200 | 5.2 | 10.4 | 0.00 | 0.19 | 0.19 | 65 | 995.1 |
| 20260504022731 | 82 | 237 | 7.8 | 10.4 | 0.00 | 0.19 | 0.19 | 66 | 995.2 |
| 20260504021232 | 82 | 194 | 6.1 | 13.9 | 0.00 | 0.19 | 0.19 | 67 | 995.1 |
| 20260504015733 | 81 | 209 | 7.8 | 17.4 | 0.00 | 0.19 | 0.19 | 68 | 995.2 |
| 20260504014231 | 80 | 230 | 6.1 | 11.3 | 0.00 | 0.19 | 0.19 | 70 | 995.6 |
| 20260504012732 | 80 | 196 | 7.8 | 13.0 | 0.00 | 0.19 | 0.19 | 72 | 995.6 |
| 20260504011842 | 79 | 215 | 7.0 | 10.4 | 0.00 | 0.19 | 0.19 | 72 | 995.6 |
| 20260504011233 | 80 | 213 | 8.7 | 12.2 | 0.00 | 0.19 | 0.19 | 72 | 995.6 |
| 20260504005731 | 80 | 214 | 7.0 | 11.3 | 0.00 | 0.19 | 0.19 | 74 | 995.7 |
| 20260504004232 | 79 | 214 | 5.2 | 13.9 | 0.00 | 0.19 | 0.19 | 75 | 995.8 |
| 20260504002733 | 79 | 216 | 8.7 | 11.3 | 0.00 | 0.19 | 0.19 | 77 | 995.7 |
| 20260504001231 | 78 | 206 | 7.0 | 20.0 | 0.00 | 0.19 | 0.19 | 80 | 995.7 |
| 20260503235732 | 77 | 198 | 10.4 | 18.2 | 0.00 | 0.19 | 0.19 | 82 | 995.8 |
| 20260503234233 | 75 | 195 | 10.4 | 21.7 | 0.00 | 0.19 | 0.19 | 85 | 995.7 |
| 20260503232731 | 75 | 209 | 8.7 | 17.4 | 0.00 | 0.19 | 0.19 | 87 | 995.6 |
| 20260503231232 | 75 | 203 | 7.8 | 11.3 | 0.00 | 0.19 | 0.19 | 88 | 995.7 |
| 20260503225733 | 74 | 206 | 6.1 | 7.8 | 0.00 | 0.19 | 0.19 | 88 | 995.9 |
| 20260503224231 | 74 | 203 | 8.7 | 20.0 | 0.00 | 0.19 | 0.19 | 89 | 995.9 |
| 20260503222733 | 74 | 193 | 8.7 | 10.4 | 0.00 | 0.19 | 0.19 | 90 | 996.2 |
| 20260503221231 | 73 | 221 | 8.7 | 20.9 | 0.00 | 0.19 | 0.19 | 90 | 995.9 |
| 20260503215732 | 73 | 212 | 8.7 | 15.6 | 0.00 | 0.19 | 0.19 | 90 | 995.6 |
| 20260503214233 | 72 | 204 | 10.4 | 30.4 | 0.01 | 0.19 | 0.19 | 90 | 995.2 |
| 20260503212731 | 71 | 192 | 12.2 | 20.9 | 0.01 | 0.19 | 0.19 | 90 | 995.0 |
| 20260503211232 | 70 | 201 | 8.7 | 13.0 | 0.06 | 0.19 | 0.19 | 90 | 995.5 |
| 20260503205732 | 70 | 211 | 7.0 | 15.6 | 0.11 | 0.19 | 0.19 | 90 | 995.4 |
| 20260503204232 | 70 | 184 | 8.7 | 20.0 | 0.13 | 0.18 | 0.18 | 90 | 995.7 |
| 20260503202731 | 70 | 192 | 7.8 | 15.6 | 0.13 | 0.18 | 0.18 | 90 | 995.7 |
| 20260503201232 | 70 | 203 | 7.8 | 7.8 | 0.07 | 0.13 | 0.13 | 90 | 996.1 |
| 20260503195732 | 71 | 187 | 8.7 | 20.9 | 0.02 | 0.08 | 0.08 | 90 | 996.3 |
| 20260503194231 | 71 | 207 | 8.7 | 15.6 | 0.00 | 0.06 | 0.06 | 90 | 996.4 |
| 20260503192732 | 70 | 204 | 8.7 | 20.9 | 0.01 | 0.06 | 0.06 | 90 | 996.5 |
| 20260503191231 | 70 | 205 | 12.2 | 20.0 | 0.02 | 0.06 | 0.06 | 90 | 996.7 |